Home > Weather > Sondershausen > Past weeks

Flag for Germany Past Weather in Sondershausen, Thuringia, Germany — Yesterday and Last 2 Weeks

Now
63 °F

Passing clouds.


Feels Like: 63 °F
Forecast: 54 / 69 °F
Wind: 13 mph from Southwest

Location: Erfurt-Bindersleben

Current Time: Jun 29, 2016 at 7:46:42 AM

Latest Report: Jun 29, 2016 at 7:20 AM


Visibility: N/A

Pressure: 29.89 "Hg

Humidity: 83%

Dew Point: 57 °F

Location of SondershausenLocation

Past Weather in Sondershausen — Graph

°F

Sondershausen Temperature Yesterday

Maximum temperature yesterday: 70 °F (at 4:50 PM)
Minimum temperature yesterday: 55 °F (at 5:50 AM)
Average temperature yesterday: 62 °F

High & Low Weather Summary for the Past Weeks

 TemperatureHumidityPressure
High91 °F (Jun 24, 3:50 PM)100% (Jun 17, 6:50 AM)30.24 "Hg (Jun 17, 6:50 AM)
Low46 °F (Jun 20, 5:20 AM)31% (Jun 23, 4:20 PM)29.50 "Hg (Jun 14, 5:20 PM)
Average64 °F75%29.97 "Hg
* Reported Jun 14 6:20 AM — Jun 29 6:20 AM, Sondershausen, Weather by CustomWeather, © 2016

Note: Actual official high and low records may vary slightly from our data, if they occured in-between our weather recording intervals... More about our weather records

Advertising

Sondershausen Weather History for the Previous 24 Hours

Scroll right to see more
 ConditionsComfort  
Time TempWeatherWind HumidityBarometerVisibility
6:20 AM
Wed, Jun 29
63 °FPartly sunny.10 mph83%29.89 "HgN/A
5:20 AM61 °FPartly cloudy.7 mph83%29.89 "HgN/A
4:50 AM61 °FClear.10 mph83%29.89 "Hg10 mi
4:20 AM61 °FClear.7 mph83%29.89 "Hg10 mi
3:50 AM61 °FClear.6 mph83%29.89 "Hg10 mi
3:20 AM61 °FClear.7 mph83%29.89 "Hg10 mi
2:50 AM61 °FPartly cloudy.8 mph83%29.92 "HgN/A
2:20 AM61 °FPartly cloudy.3 mph83%29.92 "HgN/A
1:20 AM61 °FClear.6 mph83%29.95 "Hg10 mi
12:50 AM61 °FLight rain. Partly cloudy.6 mph83%29.95 "HgN/A
12:20 AM61 °FLight rain. Passing clouds.7 mph83%29.95 "HgN/A
11:50 PM
Tue, Jun 28
61 °FClear.7 mph83%29.95 "Hg10 mi
11:20 PM61 °FClear.8 mph83%29.98 "Hg10 mi
10:50 PM61 °FClear.8 mph83%29.98 "Hg10 mi
10:20 PM61 °FSunny.6 mph88%29.98 "Hg10 mi
9:50 PM63 °FSunny.2 mph83%29.98 "Hg10 mi
9:20 PM63 °FSunny.5 mph77%29.98 "Hg10 mi
8:50 PM64 °FPassing clouds.5 mph73%29.98 "HgN/A
8:20 PM64 °FScattered clouds.5 mph73%30.01 "HgN/A
7:50 PM66 °FScattered clouds.5 mph73%30.01 "HgN/A
7:20 PM66 °FScattered clouds.5 mph68%30.01 "HgN/A
6:50 PM68 °FScattered clouds.7 mph64%30.01 "HgN/A
6:20 PM68 °FScattered clouds.6 mph60%30.01 "HgN/A
5:50 PM66 °FPartly sunny.6 mph64%30.04 "HgN/A
5:20 PM68 °FScattered clouds.6 mph60%30.04 "HgN/A
4:50 PM70 °FScattered clouds.5 mph57%30.04 "HgN/A
4:20 PM66 °FPartly sunny.7 mph64%30.04 "HgN/A
3:50 PM66 °FPartly sunny.7 mph64%30.04 "HgN/A
3:20 PM66 °FBroken clouds.7 mph64%30.04 "HgN/A
2:50 PM66 °FScattered showers. Broken clouds.6 mph56%30.07 "HgN/A
2:20 PM66 °FPartly sunny.3 mph60%30.07 "HgN/A
1:50 PM66 °FBroken clouds.3 mph60%30.07 "HgN/A
1:20 PM68 °FScattered clouds.3 mph56%30.07 "HgN/A
12:50 PM68 °FScattered clouds.2 mph56%30.09 "HgN/A
12:20 PM66 °FScattered clouds.5 mph56%30.09 "HgN/A
11:50 AM66 °FPassing clouds.2 mph60%30.09 "HgN/A
11:20 AM66 °FScattered clouds.3 mph60%30.09 "HgN/A
10:50 AM63 °FScattered clouds.5 mph73%30.09 "HgN/A
10:20 AM63 °FScattered clouds.5 mph73%30.09 "HgN/A
9:50 AM61 °FScattered clouds.5 mph77%30.09 "HgN/A
9:20 AM59 °FBroken clouds.7 mph82%30.09 "HgN/A
8:50 AM59 °FPartly sunny.5 mph82%30.09 "HgN/A
8:20 AM57 °FPartly sunny.7 mph88%30.09 "HgN/A
7:50 AM55 °FPartly sunny.7 mph94%30.09 "HgN/A
7:20 AM57 °FBroken clouds.7 mph88%30.09 "HgN/A
Weather by CustomWeather, © 2016

See weather overviewHow to use our weather pages